This is the latest recevied weather packets stored in our database for station/object KD7JB. If no packets are shown the sender has not sent any weather packets the latest 10 day(s).
| Time | Temp. | Humidity | Pressure | Rain* | Wind** | Luminosity | Snow |
|---|---|---|---|---|---|---|---|
| 1777489790 | 12.22° C | 53% | 1184 hPa | 0 mm | - | 827 W/m² | - |
| 1777487368 | 11.67° C | 54% | 1184.3 hPa | 0 mm | - | 711 W/m² | - |
| 1777486157 | 11.11° C | 57% | 1184.2 hPa | 0 mm | - | 678 W/m² | - |
| 1777485855 | 11.11° C | 59% | 1184.2 hPa | 0 mm | - | 666 W/m² | - |
| 1777485554 | 11.11° C | 58% | 1184.4 hPa | 0 mm | - | 660 W/m² | - |
| 1777485251 | 11.67° C | 58% | 1184.2 hPa | 0 mm | - | 650 W/m² | - |
| 1777484341 | 11.11° C | 61% | 1184.1 hPa | 0 mm | - | 624 W/m² | - |
| 1777484036 | 10.56° C | 59% | 1184.2 hPa | 0 mm | - | 614 W/m² | - |
| 1777483733 | 10.56° C | 61% | 1184.1 hPa | 0 mm | - | 605 W/m² | - |
| 1777483429 | 10.56° C | 60% | 1184.2 hPa | 0 mm | - | 595 W/m² | - |
| 1777483124 | 10.56° C | 60% | 1184.1 hPa | 0 mm | - | 584 W/m² | - |
| 1777482822 | 10° C | 61% | 1184 hPa | 0 mm | - | 573 W/m² | - |
| 1777482517 | 10° C | 61% | 1184.1 hPa | 0 mm | - | 563 W/m² | - |
| 1777482215 | 10° C | 61% | 1184 hPa | 0 mm | - | 554 W/m² | - |
| 1777481912 | 10.56° C | 59% | 1184.1 hPa | 0 mm | - | 543 W/m² | - |
| 1777481307 | 10° C | 60% | 1183.7 hPa | 0 mm | - | 519 W/m² | - |
| 1777480700 | 10° C | 62% | 1183.7 hPa | 0 mm | - | 494 W/m² | - |
| 1777480397 | 10° C | 60% | 1183.5 hPa | 0 mm | - | 481 W/m² | - |
| 1777480092 | 10° C | 60% | 1183.7 hPa | 0 mm | - | 466 W/m² | - |
| 1777479487 | 9.44° C | 60% | 1183.6 hPa | 0 mm | - | 442 W/m² | - |
| 1777478880 | 9.44° C | 61% | 1183.7 hPa | 0 mm | - | 350 W/m² | - |
| 1777478576 | 9.44° C | 61% | 1183.7 hPa | 0 mm | - | 402 W/m² | - |
| 1777477665 | 8.89° C | 61% | 1183.5 hPa | 0 mm | - | 363 W/m² | - |
| 1777477059 | 9.44° C | 61% | 1183.5 hPa | 0 mm | - | 336 W/m² | - |
| 1777476452 | 8.89° C | 62% | 1183.4 hPa | 0 mm | - | 308 W/m² | - |
* Rain latest hour (hover to see other rain measurements)
** Current wind speed in m/s (hover to see current wind gust speed)